1302912034525,4.19012
1302912094525,4.20417
1302912154525,4.18744
1302912214525,4.17273
1302912274525,4.19866
1302912334525,4.18792
1302912394525,4.20646
1302912454525,4.19485
1302912514525,4.19019
1302912574525,4.18622
1302912634525,4.17004
1302912694525,4.18553
1302912754525,4.17204
1302912814525,4.17756
1302912874525,4.18258
1302912934525,4.17156
1302912994525,4.16845
1302913054525,4.18035
1302913114525,4.16359
1302913174525,4.18454
1302913234525,4.17073
1302913294525,4.18902
1302913354525,4.19967
1302913414525,4.16155
1302913474525,4.18355
1302913534525,4.18161
1302913594525,4.19886
1302913654525,4.17337
1302913714525,4.19619
1302913774525,4.18730
1302913834525,4.17471
1302913894525,4.15337
1302913954525,4.21223
1302914014525,4.21350
1302914074525,4.22624
1302914134525,4.23046
1302914194525,4.26105
1302914254525,4.23264
1302914314525,4.26163
1302914374525,4.28198
1302914434525,4.30819
1302914494525,4.30693
1302914554525,4.36648
1302914614525,4.35019
1302914674525,4.38574
1302914734525,4.35079
1302914794525,4.34527
1302914854525,4.34631
1302914914525,4.31746
1302914974525,4.40996
1302915034525,4.41997
1302915094525,4.47895
1302915154525,4.52513
1302915214525,4.57982
1302915274525,4.60259
1302915334525,4.62114
1302915394525,4.68998
1302915454525,4.73804
1302915514525,4.73906
1302915574525,4.73143
1302915634536,4.73309
1302915694536,4.69615
1302915754536,4.65938
1302915814536,4.65309
1302915874536,4.60417
1302915934536,4.55378
1302915994536,4.53408
1302916054536,4.52993
1302916114536,4.49836
1302916174536,4.46644
1302916234536,4.39874
1302916294536,4.43454
1302916354536,4.35285
1302916414536,4.36803
1302916474536,4.32376
1302916534536,4.35919
1302916594536,4.31328
1302916654536,4.29938
1302916714536,4.29664
1302916774536,4.31399
1302916834536,4.27339
1302916894536,4.24729
1302916954536,4.25171
1302917014536,4.24552
1302917074536,4.26754
1302917134536,4.21865
1302917194536,4.26716
1302917254536,4.24218
1302917314536,4.25113
1302917374536,4.25745
1302917434536,4.23315
1302917494536,4.24352
1302917554536,4.23574
1302917614536,4.22978
1302917674536,4.21033
1302917734536,4.24823
1302917794536,4.20962
1302917854536,4.21673
1302917914536,4.21899
1302917974536,4.24354
1302918034536,4.21925
1302918094536,4.21459
1302918154536,4.20053
1302918214536,4.19003
1302918274536,4.21076
1302918334536,4.19227
1302918394536,4.18760
1302918454536,4.19723
1302918514536,4.21135
1302918574536,4.18600
1302918634536,4.21862
1302918694536,4.19810
1302918754536,4.19713
1302918814536,4.21422
1302918874536,4.20634
1302918934536,4.20086
1302918994536,4.22769
1302919054536,4.23131
1302919114536,4.23682
1302919174536,4.30048
1302919234548,4.29739
1302919294548,4.28182
1302919354548,4.26865
1302919414548,4.25644
1302919474548,4.26458
1302919534548,4.24440
1302919594548,4.22619
1302919654548,4.20669
1302919714548,4.20563
1302919774548,4.23315
1302919834548,4.22653
1302919894548,4.20221
1302919954548,4.22131
1302920014548,4.20563
1302920074548,4.19719
1302920134548,4.22520
1302920194548,4.23957
1302920254548,4.24410
1302920314548,4.21108
1302920374548,4.20761
1302920434548,4.18210
1302920494548,4.21444
1302920554548,4.18638
1302920614548,4.20731
1302920674548,4.18323
1302920734548,4.21044
1302920794548,4.15626
1302920854548,4.20520
1302920914548,4.21929
1302920974548,4.22974
1302921034548,4.20401
1302921094548,4.19572
1302921154548,4.20810
1302921214548,4.23345
1302921274548,4.22351
1302921334548,4.24014
1302921394548,4.26269
1302921454548,4.26060
1302921514548,4.31525
1302921574548,4.27687
1302921634548,4.29489
1302921694548,4.29784
1302921754548,4.27815
1302921814548,4.27822
1302921874548,4.26256
1302921934548,4.22371
1302921994548,4.25251
1302922054548,4.25374
1302922114548,4.26131
1302922174548,4.25773
1302922234548,4.24027
1302922294548,4.23494
1302922354548,4.25390
1302922414548,4.24154
1302922474548,4.24853
1302922534548,4.25441
1302922594548,4.26255
1302922654548,4.23116
1302922714548,4.28286
1302922774548,4.29400
1302922834559,4.25410
1302922894559,4.26201
1302922954559,4.25723
1302923014559,4.26136
1302923074559,4.25393
1302923134559,4.27259
1302923194559,4.27524
1302923254559,4.26455
1302923314559,4.28947
1302923374559,4.30838
1302923434559,4.32222
1302923494559,4.33977
1302923554559,4.33551
1302923614559,4.34988
1302923674559,4.33875
1302923734559,4.33241
1302923794559,4.28834
1302923854559,4.29737
1302923914559,4.29656
1302923974559,4.29909
1302924034559,4.29123
1302924094559,4.29100
1302924154559,4.27885
1302924214559,4.25406
1302924274559,4.25494
1302924334559,4.27829
1302924394559,4.25076
1302924454559,4.26744
1302924514559,4.24846
1302924574559,4.24033
1302924634559,4.23673
1302924694559,4.24360
1302924754559,4.21129
1302924814559,4.23643
1302924874559,4.20321
1302924934559,4.21730
1302924994559,4.21736
1302925054559,4.21069
1302925114559,4.20343
1302925174559,4.18744
1302925234559,4.22323
1302925294559,4.19999
1302925354559,4.16101
1302925414559,4.18295
1302925474559,4.20417
1302925534559,4.16610
1302925594559,4.15829
1302925654559,4.20324
1302925714559,4.19384
1302925774559,4.18004
1302925834559,4.14696
1302925894559,4.18302
1302925954559,4.16957
1302926014559,4.18887
1302926074559,4.19387
1302926134559,4.16618
1302926194559,4.14403
1302926254559,4.16196
1302926314559,4.18166
1302926374559,4.14446
1302926434570,4.18135
1302926494570,4.16701
1302926554570,4.17947
1302926614570,4.17982
1302926674570,4.27361
1302926734570,4.24410
1302926794570,4.25244
1302926854570,4.27160
1302926914570,4.27929
1302926974570,4.27508
1302927034570,4.27132
1302927094570,4.23798
1302927154570,4.24274
1302927214570,4.21315
1302927274570,4.21095
1302927334570,4.19035
1302927394570,4.22930
1302927454570,4.17953
1302927514570,4.18274
1302927574570,4.17291
1302927634570,4.20941
1302927694570,4.16058
1302927754570,4.15994
1302927814570,4.17879
1302927874570,4.17648
1302927934570,4.16013
1302927994570,4.16681
1302928054570,4.14643
1302928114570,4.13223
1302928174570,4.15336
1302928234570,4.16674
1302928294570,4.15883
1302928354570,4.17011
1302928414570,4.18603
1302928474570,4.15667
1302928534570,4.15302
1302928594570,4.16561
1302928654570,4.17350
1302928714570,4.19525
1302928774570,4.19320
1302928834570,4.20509
1302928894570,4.17625
1302928954570,4.19975
1302929014570,4.18332
1302929074570,4.17361
1302929134570,4.15249
1302929194570,4.17076
1302929254570,4.20448
1302929314570,4.18412
1302929374570,4.15198
1302929434570,4.21360
1302929494570,4.19581
1302929554570,4.20608
1302929614570,4.19583
1302929674570,4.16857
1302929734570,4.13636
1302929794570,4.17049
1302929854570,4.18405
1302929914570,4.14781
1302929974570,4.18427
1302930034581,4.18299
1302930094581,4.16900
1302930154581,4.19833
1302930214581,4.17552
1302930274581,4.21194
1302930334581,4.14701
1302930394581,4.16665
1302930454581,4.18194
1302930514581,4.19491
1302930574581,4.16567
1302930634581,4.16655
1302930694581,4.15137
1302930754581,4.16021
1302930814581,4.15484
1302930874581,4.16661
1302930934581,4.15311
1302930994581,4.15413
1302931054581,4.16035
1302931114581,4.15513
1302931174581,4.20041
1302931234581,4.15968
1302931294581,4.17764
1302931354581,4.13432
1302931414581,4.20942
1302931474581,4.17396
1302931534581,4.20853
1302931594581,4.17013
1302931654581,4.20206
1302931714581,4.21782
1302931774581,4.23870
1302931834581,4.27960
1302931894581,4.28528
1302931954581,4.25533
1302932014581,4.32495
1302932074581,4.31817
1302932134581,4.36731
1302932194581,4.40649
1302932254581,4.41944
1302932314581,4.41945
1302932374581,4.45626
1302932434581,4.46359
1302932494581,4.42118
1302932554581,4.36907
1302932614581,4.36638
1302932674581,4.32785
1302932734581,4.29673
1302932794581,4.27784
1302932854581,4.29007
1302932914581,4.24459
1302932974581,4.24411
1302933034581,4.22787
1302933094581,4.24911
1302933154581,4.20411
1302933214581,4.21147
1302933274581,4.18233
1302933334581,4.17424
1302933394581,4.17552
1302933454581,4.20583
1302933514581,4.18252
1302933574581,4.17278
1302933634592,4.20321
1302933694592,4.17354
1302933754592,4.15683
1302933814592,4.15899
1302933874592,4.17463
1302933934592,4.17355
1302933994592,4.16521
1302934054592,4.18872
1302934114592,4.17120
1302934174592,4.15420
1302934234592,4.17241
1302934294592,4.16737
1302934354592,4.20908
1302934414592,4.22679
1302934474592,4.27852
1302934534592,4.28955
1302934594592,4.24503
1302934654592,4.27708
1302934714592,4.24200
1302934774592,4.21231
1302934834592,4.22571
1302934894592,4.20939
1302934954592,4.19758
1302935014592,4.17770
1302935074592,4.19529
1302935134592,4.17730
1302935194592,4.16268
1302935254592,4.16317
1302935314592,4.15227
1302935374592,4.16687
1302935434592,4.16726
1302935494592,4.12915
1302935554592,4.13608
1302935614592,4.13450
1302935674592,4.18093
1302935734592,4.15659
1302935794592,4.18174
1302935854592,4.14805
1302935914592,4.16206
1302935974592,4.18051
1302936034592,4.15336
1302936094592,4.17203
1302936154592,4.20934
1302936214592,4.16913
1302936274592,4.19914
1302936334592,4.18418
1302936394592,4.15809
1302936454592,4.17722
1302936514592,4.16785
1302936574592,4.15215
1302936634592,4.17146
1302936694592,4.14622
1302936754592,4.18564
1302936814592,4.15126
1302936874592,4.16906
1302936934592,4.15561
1302936994592,4.15309
1302937054592,4.17872
1302937114592,4.15580
1302937174592,4.14704
1302937234603,4.21311
1302937294603,4.18993
1302937354603,4.16043
1302937414603,4.19600
1302937474603,4.18211
1302937534603,4.15833
1302937594603,4.18700
1302937654603,4.16368
1302937714603,4.15079
1302937774603,4.17438
1302937834603,4.17377
1302937894603,4.18053
1302937954603,4.16563
1302938014603,4.16059
1302938074603,4.16600
1302938134603,4.19595
1302938194603,4.16984
1302938254603,4.15206
1302938314603,4.15166
1302938374603,4.19280
1302938434603,4.14357
1302938494603,4.16798
1302938554603,4.13224
1302938614603,4.15515
1302938674603,4.16260
1302938734603,4.18004
1302938794603,4.15671
1302938854603,4.18983
1302938914603,4.17149
1302938974603,4.19513
1302939034603,4.14125
1302939094603,4.15616
1302939154603,4.14948
1302939214603,4.13005
1302939274603,4.15085
1302939334603,4.11592
1302939394603,4.12272
1302939454603,4.13676
1302939514603,4.11997
1302939574603,4.12223
1302939634603,4.11948
1302939694603,4.11461
1302939754603,4.10363
1302939814603,4.10847
1302939874603,4.11929
1302939934603,4.15072
1302939994603,4.10239
1302940054603,4.12692
1302940114603,4.10838
1302940174603,4.11376
1302940234603,4.13580
1302940294603,4.12892
1302940354603,4.12203
1302940414603,4.11330
1302940474603,4.11240
1302940534603,4.12307
1302940594603,4.13397
1302940654603,4.11563
1302940714603,4.11719
1302940774603,4.11612
1302940834614,4.11156
1302940894614,4.10851
1302940954614,4.13206
1302941014614,4.14126
1302941074614,4.08108
1302941134614,4.09987
1302941194614,4.10656
1302941254614,4.10465
1302941314614,4.06872
1302941374614,4.11293
1302941434614,4.09409
1302941494614,4.11043
1302941554614,4.08023
1302941614614,4.06213
1302941674614,4.11084
1302941734614,4.09146
1302941794614,4.07091
1302941854614,4.10685
1302941914614,4.09121
1302941974614,4.08783
1302942034614,4.10235
1302942094614,4.13915
1302942154614,4.08000
1302942214614,4.05804
1302942274614,4.10598
1302942334614,4.08862
1302942394614,4.07812
1302942454614,4.11372
1302942514614,4.10764
1302942574614,4.10393
1302942634614,4.09642
1302942694614,4.11845
1302942754614,4.10411
1302942814614,4.12274
1302942874614,4.07329
1302942934614,4.11045
1302942994614,4.08213
1302943054614,4.07542
1302943114614,4.07658
1302943174614,4.13878
1302943234614,4.10920
1302943294614,4.10914
1302943354614,4.12357
1302943414614,4.07600
1302943474614,4.09202
1302943534614,4.07371
1302943594614,4.10939
1302943654614,4.08057
1302943714614,4.09315
1302943774614,4.10982
1302943834614,4.10790
1302943894614,4.07963
1302943954614,4.08477
1302944014614,4.09671
1302944074614,4.08558
1302944134614,4.11080
1302944194614,4.13681
1302944254614,4.12373
1302944314614,4.12649
1302944374614,4.08803
1302944434625,4.08873
1302944494625,4.11754
1302944554625,4.11465
1302944614625,4.19108
1302944674625,4.22187
1302944734625,4.26960
1302944794625,4.22566
1302944854625,4.25307
1302944914625,4.24366
1302944974625,4.20941
1302945034625,4.15366
1302945094625,4.14696
1302945154625,4.18391
1302945214625,4.11746
1302945274625,4.11102
1302945334625,4.14476
1302945394625,4.12105
1302945454625,4.11306
1302945514625,4.12136
1302945574625,4.07950
1302945634625,4.10260
1302945694625,4.09260
1302945754625,4.13493
1302945814625,4.11687
1302945874625,4.11540
1302945934625,4.12680
1302945994625,4.13321
1302946054625,4.08508
1302946114625,4.11575
1302946174625,4.09333
1302946234625,4.06960
1302946294625,4.08290
1302946354625,4.10835
1302946414625,4.07265
1302946474625,4.08340
1302946534625,4.08161
1302946594625,4.06288
1302946654625,4.06589
1302946714625,4.09189
1302946774625,4.09808
1302946834625,4.06643
1302946894625,4.06819
1302946954625,4.08907
1302947014625,4.05416
1302947074625,4.08666
1302947134625,4.07075
1302947194625,4.04093
1302947254625,4.09352
1302947314625,4.05912
1302947374625,4.06264
1302947434625,4.08966
1302947494625,4.04888
1302947554625,4.07075
1302947614625,4.07380
1302947674625,4.09180
1302947734625,4.06855
1302947794625,4.05755
1302947854625,4.06839
1302947914625,4.05940
1302947974625,4.08088
1302948034637,4.05538
1302948094637,4.07982
1302948154637,4.07344
1302948214637,4.07873
1302948274637,4.03145
1302948334637,4.06372
1302948394637,4.05297
1302948454637,4.10322
1302948514637,4.04289
1302948574637,4.07184
1302948634637,4.03023
1302948694637,4.03920
1302948754637,4.07549
1302948814637,4.05344
1302948874637,4.01717
1302948934637,4.09137
1302948994637,4.07545
1302949054637,4.09383
1302949114637,4.06871
1302949174637,4.04827
1302949234637,4.05215
1302949294637,4.05774
1302949354637,4.08620
1302949414637,4.09102
1302949474637,4.07787
1302949534637,4.02822
1302949594637,4.08005
1302949654637,4.08811
1302949714637,4.04180
1302949774637,4.06124
1302949834637,4.05617
1302949894637,4.07206
1302949954637,4.04687
1302950014637,4.09723
1302950074637,4.06792
1302950134637,4.13811
1302950194637,4.10069
1302950254637,4.12676
1302950314637,4.09401
1302950374637,4.10411
1302950434637,4.09550
1302950494637,4.07107
1302950554637,4.06348
1302950614637,4.04245
1302950674637,4.07449
1302950734637,4.07048
1302950794637,4.07854
1302950854637,4.07290
1302950914637,4.06251
1302950974637,4.09066
1302951034637,4.05685
1302951094637,4.05167
1302951154637,4.11443
1302951214637,4.09363
1302951274637,4.08141
1302951334637,4.06692
1302951394637,4.05563
1302951454637,4.06492
1302951514637,4.05539
1302951574637,4.06562
1302951634648,4.04651
1302951694648,4.05427
1302951754648,4.08419
1302951814648,4.05237
1302951874648,4.08180
1302951934648,4.05731
1302951994648,4.13499
1302952054648,4.09503
1302952114648,4.08821
1302952174648,4.10831
1302952234648,4.08666
1302952294648,4.06713
1302952354648,4.07928
1302952414648,4.07756
1302952474648,4.09713
1302952534648,4.08667
1302952594648,4.08603
1302952654648,4.10251
1302952714648,4.09291
1302952774648,4.07604
1302952834648,4.07740
1302952894648,4.11346
1302952954648,4.07321
1302953014648,4.11444
1302953074648,4.11776
1302953134648,4.09363
1302953194648,4.09656
1302953254648,4.10076
1302953314648,4.11881
1302953374648,4.11843
1302953434648,4.06702
1302953494648,4.10308
1302953554648,4.10559
1302953614648,4.04989
1302953674648,4.05674
1302953734648,4.10551
1302953794648,4.12787
1302953854648,4.08253
1302953914648,4.08331
1302953974648,4.08890
1302954034648,4.12814
1302954094648,4.09191
1302954154648,4.08282
1302954214648,4.11266
1302954274648,4.06962
1302954334648,4.08598
1302954394648,4.08837
1302954454648,4.09881
1302954514648,4.09853
1302954574648,4.10316
1302954634648,4.10866
1302954694648,4.08960
1302954754648,4.09929
1302954814648,4.09597
1302954874648,4.12687
1302954934648,4.08983
1302954994648,4.10046
1302955054648,4.11733
1302955114648,4.11635
1302955174648,4.12309
1302955234658,4.10846
1302955294658,4.09514
1302955354658,4.09898
1302955414658,4.06989
1302955474658,4.08871
1302955534658,4.09347
1302955594658,4.09672
1302955654658,4.09230
1302955714658,4.12627
1302955774658,4.10578
1302955834658,4.08832
1302955894658,4.12784
1302955954658,4.09165
1302956014658,4.10703
1302956074658,4.12335
1302956134658,4.11750
1302956194658,4.11149
1302956254659,4.10385
1302956314659,4.13894
1302956374659,4.11344
1302956434659,4.09910
1302956494659,4.09921
1302956554658,4.10631
1302956614658,4.11495
1302956674658,4.11094
1302956734658,4.09817
1302956794658,4.09666
1302956854658,4.08573
1302956914658,4.14331
1302956974658,4.10825
1302957034658,4.11570
1302957094658,4.12813
1302957154658,4.12566
1302957214658,4.11443
1302957274658,4.09954
1302957334658,4.12072
1302957394658,4.10635
1302957454658,4.11347
1302957514658,4.08312
1302957574658,4.11971
1302957634659,4.08660
1302957694659,4.08722
1302957754659,4.10382
1302957814659,4.09980
1302957874658,4.10596
1302957934658,4.09787
1302957994658,4.13555
1302958054658,4.10915
1302958114658,4.11568
1302958174658,4.07627
1302958234658,4.12986
1302958294658,4.15756
1302958354658,4.14267
1302958414658,4.13713
1302958474658,4.12036
1302958534658,4.12629
1302958594658,4.14865
1302958654658,4.11050
1302958714658,4.12120
1302958774658,4.11477
1302958834669,4.11358
1302958894669,4.13104
1302958954669,4.13058
1302959014669,4.10924
1302959074669,4.10500
1302959134669,4.11055
1302959194669,4.10080
1302959254669,4.10709
1302959314669,4.10258
1302959374669,4.11569
1302959434669,4.12661
1302959494669,4.12611
1302959554669,4.13557
1302959614669,4.10856
1302959674669,4.09723
1302959734669,4.13002
1302959794669,4.14103
1302959854669,4.10840
1302959914669,4.13357
1302959974669,4.13703
1302960034669,4.12405
1302960094669,4.09698
1302960154669,4.12489
1302960214669,4.10799
1302960274669,4.08635
1302960334669,4.14066
1302960394669,4.08931
1302960454669,4.12507
1302960514669,4.12364
1302960574669,4.11594
1302960634669,4.11519
1302960694669,4.11662
1302960754669,4.12825
1302960814669,4.10562
1302960874669,4.09037
1302960934669,4.11043
1302960994669,4.12155
1302961054669,4.11236
1302961114669,4.08280
1302961174669,4.10388
1302961234669,4.08559
1302961294669,4.11888
1302961354669,4.12879
1302961414669,4.12128
1302961474669,4.11140
1302961534669,4.13859
1302961594669,4.12646
1302961654669,4.11193
1302961714669,4.14217
1302961774669,4.12195
1302961834669,4.15088
1302961894669,4.17856
1302961954669,4.16852
1302962014669,4.17983
1302962074669,4.20516
1302962134669,4.22708
1302962194669,4.27281
1302962254669,4.33567
1302962314669,4.38377
1302962374669,4.46313
1302962434680,4.54939
1302962494680,4.58824
1302962554680,4.65620
1302962614680,4.63143
1302962674680,4.62867
1302962734680,4.60466
1302962794680,4.60856
1302962854680,4.61429
1302962914680,4.64227
1302962974680,4.64979
1302963034680,4.71375
1302963094680,4.70636
1302963154680,4.77163
1302963214680,4.79774
1302963274680,4.76701
1302963334680,4.76566
1302963394680,4.74083
1302963454680,4.71087
1302963514680,4.69736
1302963574680,4.62819
1302963634680,4.67465
1302963694680,4.62972
1302963754680,4.60083
1302963814680,4.55560
1302963874680,4.51732
1302963934680,4.46841
1302963994680,4.47574
1302964054680,4.41721
1302964114680,4.46581
1302964174680,4.43493
1302964234680,4.40176
1302964294680,4.36752
1302964354680,4.33433
1302964414680,4.30235
1302964474680,4.31910
1302964534680,4.29968
1302964594680,4.30184
1302964654680,4.26171
1302964714680,4.23617
1302964774680,4.23475
1302964834680,4.24671
1302964894680,4.20733
1302964954680,4.22587
1302965014680,4.17017
1302965074680,4.21832
1302965134680,4.20693
1302965194680,4.19554
1302965254680,4.21537
1302965314680,4.20272
1302965374680,4.21443
1302965434680,4.19309
1302965494680,4.20781
1302965554680,4.18491
1302965614680,4.20663
1302965674680,4.21014
1302965734680,4.18698
1302965794680,4.19003
1302965854680,4.18458
1302965914680,4.19957
1302965974680,4.18364
1302966034691,4.19192
1302966094691,4.16051
1302966154691,4.19364
1302966214691,4.19067
1302966274691,4.18612
1302966334691,4.14265
1302966394691,4.18967
1302966454691,4.18486
1302966514691,4.18695
1302966574691,4.17778
1302966634691,4.18403
1302966694691,4.16683
1302966754691,4.16134
1302966814691,4.14531
1302966874691,4.16309
1302966934691,4.17355
1302966994691,4.18144
1302967054691,4.18423
1302967114691,4.13748
1302967174691,4.15589
1302967234691,4.15096
1302967294691,4.16742
1302967354691,4.19418
1302967414691,4.15555
1302967474691,4.13130
1302967534691,4.17053
1302967594691,4.15216
1302967654691,4.15822
1302967714691,4.14141
1302967774691,4.18025
1302967834691,3.95972
1302967894691,4.18066
1302967954691,4.14406
1302968014691,4.18453
1302968074691,4.11211
1302968134691,4.16736
1302968194691,4.16314
1302968254691,4.15238
1302968314691,4.13872
1302968374691,4.13086
1302968434691,4.16377
1302968494691,4.15040
1302968554691,4.13076
1302968614691,4.15459
1302968674691,4.16352
1302968734691,4.15480
1302968794691,4.14164
1302968854691,4.11624
1302968914691,4.13228
1302968974691,4.14670
1302969034691,4.15040
1302969094691,4.14815
1302969154691,4.12456
1302969214691,4.14394
1302969274691,4.12685
1302969334691,4.15565
1302969394691,4.16722
1302969454691,4.19110
1302969514691,4.13633
1302969574691,4.14747
1302969634701,4.12010
1302969694701,4.12695
1302969754701,4.15755
1302969814701,4.10251
1302969874701,4.14586
1302969934701,4.13528
1302969994701,4.16562
1302970054701,4.11859
1302970114701,4.13235
1302970174701,4.12186
1302970234701,4.15735
1302970294701,4.11372
1302970354701,4.10034
1302970414701,4.13496
1302970474701,4.19058
1302970534701,4.13840
1302970594701,4.14864
1302970654701,4.14564
1302970714701,4.11859
1302970774701,4.08720
1302970834701,4.12921
1302970894701,4.15367
1302970954701,4.12850
1302971014701,4.14490
1302971074701,4.11202
1302971134701,4.16225
1302971194701,4.12253
1302971254701,4.15658
1302971314701,4.14187
1302971374701,4.13453
1302971434701,4.09277
1302971494701,4.14270
1302971554701,4.15904
1302971614701,4.13191
1302971674701,4.17346
1302971734701,4.17514
1302971794701,4.19432
1302971854701,4.19885
1302971914701,4.25351
1302971974701,4.21139
1302972034701,4.24455
1302972094701,4.27193
1302972154701,4.22301
1302972214701,4.22838
1302972274701,4.23298
1302972334701,4.26302
1302972394701,4.22541
1302972454701,4.32936
1302972514701,4.34596
1302972574701,4.43418
1302972634701,4.47172
1302972694701,4.51419
1302972754701,4.53890
1302972814701,4.59185
1302972874701,4.59429
1302972934701,4.61544
1302972994701,4.55736
1302973054701,4.50680
1302973114701,4.46016
1302973174701,4.37367
1302973234712,4.34350
1302973294712,4.37262
1302973354712,4.37739
1302973414712,4.34779
1302973474712,4.39792
1302973534712,4.37641
1302973594712,4.30799
1302973654712,4.27541
1302973714712,4.25621
1302973774712,4.21684
1302973834712,4.19905
1302973894712,4.19968
1302973954712,4.21052
1302974014712,4.19496
1302974074712,4.20235
1302974134712,4.16935
1302974194712,4.21528
1302974254712,4.17239
1302974314712,4.20158
1302974374712,4.17697
1302974434712,4.19568
1302974494712,4.21279
1302974554712,4.19991
1302974614712,4.20933
1302974674712,4.19851
1302974734712,4.23499
1302974794712,4.22317
1302974854712,4.21203
1302974914712,4.21122
1302974974712,4.19695
1302975034712,4.16537
1302975094712,4.17372
1302975154712,4.14877
1302975214712,4.18785
1302975274712,4.21322
1302975334712,4.20230
1302975394712,4.16973
1302975454712,4.20928
1302975514712,4.17675
1302975574712,4.15046
1302975634712,4.21415
1302975694712,4.17101
1302975754712,4.19194
1302975814712,4.18524
1302975874712,4.18775
1302975934712,4.16852
1302975994712,4.19091
1302976054712,4.15795
1302976114712,4.17461
1302976174712,4.16518
1302976234712,4.14056
1302976294712,4.17431
1302976354712,4.13544
1302976414712,4.14817
1302976474712,4.16513
1302976534712,4.15594
1302976594712,4.14296
1302976654712,4.13869
1302976714712,4.15782
1302976774712,4.14391
1302976834722,4.17172
1302976894722,4.16107
1302976954722,4.16261
1302977014722,4.15968
1302977074722,4.14293
1302977134722,4.16995
1302977194722,4.15275
1302977254722,4.12483
1302977314722,4.14877
1302977374722,4.16253